Location: Newark
(53.7833°N, 9.4833°E)
Time: 05:42:48
(UTC+00:00)

Envisat - Pass Details

Date: 11 December 2019
Orbit: 764 x 766 km, 98.1° (Epoch: 19 January)

Event Time Altitude Azimuth Distance (km) Brightness Sun altitude
Rises 17:00:40 0° 163° (SSE) 3,224 6.2 -16.3°
Reaches altitude 10° 17:02:57 10° 163° (SSE) 2,302 5.5 -16.6°
Maximum altitude 17:08:03 89° 258° (WSW) 775 3.0 -17.4°
Drops below altitude 10° 17:13:10 10° 345° (NNW) 2,318 5.5 -18.1°
Sets 17:15:29 0° 346° (NNW) 3,249 6.3 -18.4°
